Location: Normandy Village
(37.8755°N, 122.2655°W)
Time: 20:57:23
(UTC+00:00)

Cosmos 1743 - Pass Details

Date: 22 September 2019
Orbit: 511 x 527 km, 82.6° (Epoch: 20 October)

Event Time Altitude Azimuth Distance (km) Brightness Sun altitude
Rises 13:27:37 0° 344° (NNW) 2,671 6.2 -6.6°
Reaches altitude 10° 13:29:51 10° 336° (NNW) 1,776 5.2 -6.1°
Maximum altitude 13:33:29 38° 268° (W) 821 3.2 -5.4°
Drops below altitude 10° 13:37:04 10° 200° (SSW) 1,758 5.2 -4.7°
Sets 13:39:17 0° 192° (SSW) 2,640 6.1 -4.3°
